Location: Ferintosh
(52.7647°N, 112.9692°W)
Time: 22:48:28
(UTC+00:00)

Vanguard 1 Rocket - Pass Details

Date: 18 May 2024
Orbit: 649 x 4221 km, 34.3° (Epoch: 13 June)

Event Time Altitude Azimuth Distance (km) Brightness Sun altitude
Rises 21:08:51 0° 255° (WSW) 5,844 12.0 51.7°
Reaches altitude 10° 21:14:39 10° 240° (WSW) 4,110 11.6 51.2°
Maximum altitude 21:20:55 19° 201° (SSW) 2,691 10.8 50.5°
Drops below altitude 10° 21:25:23 10° 159° (SSE) 2,766 10.2 50.0°
Sets 21:28:18 0° 139° (SE) 3,402 10.4 49.7°
